TimeCST,TemperatureF,Dew PointF,Humidity,Sea Level PressureIn,VisibilityMPH,Wind Direction,Wind SpeedMPH,Gust SpeedMPH,PrecipitationIn,Events,Conditions,WindDirDegrees,DateUTC
12:53 AM,55.0,54.0,96,30.21,5.0,Calm,Calm,-,N/A,,Clear,0,2012-12-03 06:53:00
1:41 AM,51.8,51.8,100,30.20,1.8,Calm,Calm,-,N/A,,Partly Cloudy,0,2012-12-03 07:41:00
1:45 AM,51.8,51.8,100,30.20,0.8,Calm,Calm,-,N/A,,Mist,0,2012-12-03 07:45:00
1:50 AM,53.6,51.8,94,30.20,1.2,Calm,Calm,-,N/A,,Scattered Clouds,0,2012-12-03 07:50:00
1:53 AM,53.1,53.1,100,30.20,2.0,Calm,Calm,-,N/A,,Partly Cloudy,0,2012-12-03 07:53:00
2:00 AM,53.6,51.8,94,30.20,3.0,Calm,Calm,-,N/A,,Partly Cloudy,0,2012-12-03 08:00:00
2:18 AM,51.8,51.8,100,30.20,2.0,Calm,Calm,-,0.01,,Mostly Cloudy,0,2012-12-03 08:18:00
2:25 AM,53.6,51.8,94,30.20,0.8,Calm,Calm,-,0.01,,Mist,0,2012-12-03 08:25:00
2:50 AM,53.6,53.6,100,30.20,0.2,Calm,Calm,-,0.01,Fog,Fog,0,2012-12-03 08:50:00
2:53 AM,53.1,53.1,100,30.20,0.2,Calm,Calm,-,0.01,Fog,Fog,0,2012-12-03 08:53:00
3:08 AM,53.6,53.6,100,30.20,0.2,Calm,Calm,-,N/A,Fog,Fog,0,2012-12-03 09:08:00
3:53 AM,54.0,53.1,97,30.20,0.2,Calm,Calm,-,N/A,Fog,Fog,0,2012-12-03 09:53:00
4:53 AM,53.1,53.1,100,30.20,0.2,Calm,Calm,-,N/A,Fog,Fog,0,2012-12-03 10:53:00
5:20 AM,53.6,53.6,100,30.20,0.5,Calm,Calm,-,N/A,Fog,Fog,0,2012-12-03 11:20:00
5:33 AM,53.6,53.6,100,30.21,0.5,Calm,Calm,-,N/A,Fog,Fog,0,2012-12-03 11:33:00
5:53 AM,53.1,53.1,100,30.21,1.0,Calm,Calm,-,N/A,,Mist,0,2012-12-03 11:53:00
6:03 AM,53.6,51.8,94,30.22,0.5,Calm,Calm,-,N/A,Fog,Fog,0,2012-12-03 12:03:00
6:20 AM,53.6,53.6,100,30.22,2.0,Calm,Calm,-,N/A,,Overcast,0,2012-12-03 12:20:00
6:29 AM,51.8,51.8,100,30.23,0.8,Calm,Calm,-,N/A,,Mist,0,2012-12-03 12:29:00
6:40 AM,51.8,51.8,100,30.23,3.0,Calm,Calm,-,N/A,,Mostly Cloudy,0,2012-12-03 12:40:00
6:53 AM,52.0,52.0,100,30.23,3.0,Calm,Calm,-,N/A,,Clear,0,2012-12-03 12:53:00
7:00 AM,51.8,51.8,100,30.23,0.2,Calm,Calm,-,N/A,Fog,Fog,0,2012-12-03 13:00:00
7:10 AM,53.6,53.6,100,30.24,0.8,Calm,Calm,-,N/A,,Mist,0,2012-12-03 13:10:00
7:23 AM,55.4,55.4,100,30.24,0.2,Calm,Calm,-,N/A,Fog,Fog,0,2012-12-03 13:23:00
7:53 AM,57.9,57.9,100,30.24,0.5,Calm,Calm,-,N/A,Fog,Fog,0,2012-12-03 13:53:00
8:00 AM,59.0,59.0,100,30.24,2.0,Calm,Calm,-,N/A,,Mostly Cloudy,0,2012-12-03 14:00:00
8:10 AM,59.0,59.0,100,30.24,4.0,Calm,Calm,-,N/A,,Scattered Clouds,0,2012-12-03 14:10:00
8:53 AM,64.4,62.6,94,30.24,10.0,East,4.6,-,N/A,,Clear,90,2012-12-03 14:53:00
9:53 AM,69.1,63.0,81,30.25,10.0,SE,11.5,-,N/A,,Clear,130,2012-12-03 15:53:00
10:53 AM,70.0,64.0,81,30.23,10.0,SE,13.8,-,N/A,,Partly Cloudy,130,2012-12-03 16:53:00
11:53 AM,72.0,64.9,78,30.21,10.0,SE,11.5,-,N/A,,Clear,140,2012-12-03 17:53:00
12:53 PM,72.0,64.9,78,30.19,10.0,SE,15.0,-,N/A,,Clear,140,2012-12-03 18:53:00
1:53 PM,73.0,64.9,76,30.17,10.0,SE,16.1,20.7,N/A,,Clear,130,2012-12-03 19:53:00
2:53 PM,72.0,64.9,78,30.16,10.0,SE,12.7,-,N/A,,Clear,140,2012-12-03 20:53:00
3:25 PM,71.6,64.4,78,30.17,10.0,SE,13.8,-,N/A,,Scattered Clouds,130,2012-12-03 21:25:00
3:53 PM,71.1,64.0,78,30.17,10.0,SE,9.2,-,N/A,,Scattered Clouds,130,2012-12-03 21:53:00
4:53 PM,68.0,64.0,87,30.18,10.0,SE,6.9,-,N/A,,Partly Cloudy,130,2012-12-03 22:53:00
5:53 PM,66.0,63.0,90,30.18,10.0,ESE,5.8,-,N/A,,Clear,120,2012-12-03 23:53:00
6:53 PM,64.9,63.0,93,30.19,10.0,ESE,6.9,-,N/A,,Clear,120,2012-12-04 00:53:00
7:53 PM,66.0,64.0,93,30.19,10.0,ESE,6.9,-,N/A,,Clear,120,2012-12-04 01:53:00
8:53 PM,66.0,64.0,93,30.19,10.0,SE,8.1,-,N/A,,Partly Cloudy,130,2012-12-04 02:53:00
9:53 PM,64.9,64.9,100,30.19,9.0,SE,6.9,-,N/A,,Clear,140,2012-12-04 03:53:00
10:53 PM,64.9,64.0,97,30.19,9.0,SE,8.1,-,N/A,,Clear,140,2012-12-04 04:53:00
11:53 PM,66.0,64.9,96,30.18,10.0,SSE,8.1,-,N/A,,Clear,150,2012-12-04 05:53:00